Location: Schommer Observatory
(40.5200°N, 74.4500°W)
Time: 23:26:18
(UTC-05:00)

Tiangong 2 - Pass Details

Date: 11 October 2017
Orbit: 386 x 390 km, 42.8° (Epoch: 13 December)

Event Time Altitude Azimuth Distance (km) Brightness Sun altitude
Exits shadow 06:13:03 17° 268° (W) 1,084 2.7 -10.6°
Maximum altitude 06:15:23 67° 349° (N) 427 1.2 -10.2°
Drops below altitude 10° 06:18:35 10° 73° (ENE) 1,426 5.3 -9.6°
Sets 06:20:41 0° 76° (ENE) 2,284 6.8 -9.2°
